map of MEX home
Great Circle Mapper logo
MEX - Airport
Location
City:  México City, Distrito Federal, México
Near (Alt.):Ciudad de México
Name:Benito Juárez International Airport
ICAO / IATA:MMMX / MEX

Details
Type:Airport (Aerodrome, Airfield)
Use:Public/Civil, International (customs port of entry)
Latitude:19°26'11"N (19.436303)
Longitude:99°04'20"W (-99.072096)
Datum:WGS 1984
Elevation:7316 ft (2230 m)
Runways:2
Longest:12966 × 148 ft (3952 × 45 m), paved

Time
Time Zone:UTC-6 (DST-5)
Local Time:

Weather
METAR:MMMX 252054Z 36004KT 8SM FEW020 21/02 A3034 NOSIG RMK SLP110 57020 903 8/100 HZY CI DSNT TCU SSW

Related Locations
Nearby:
Farthest:NKW: 11425 mi / 18387 km
Diego Garcia, Chagos Archipelago, IO

Find:

   beyond  
but within

Other Information
Maps:
NOTAMs:
Links:
Sources:

  
flag of México   

Sectional Chart

Flight Planning
at skyvector.com

Satellite Image

Google Maps Satellite View

 

Copyright © 2004-2014 Karl L. Swartz. All rights reserved.
The Great Circle Mapper name and logo are trademarks of the Great Circle Mapper.
All other trademarks mentioned herein belong to their respective owners.
Please see credits for attibutions and further copyright information.

  Follow gcmap on Facebook Follow gcmap on Twitter

hCard Microformat

Geo Microformat